"2009-05-01 00:00:00",847042,5.251,93.3,8.35,1.478,13.75,104.5948,11.04,12.08,57.51,0,110.3,13.31,11.83,55.3
"2009-05-01 00:00:30",847043,6.076,86.8,9.59,1.588,13.66,104.5956,11.04,12.17,57.43,0,110.3,13.31,11.83,48.8
"2009-05-01 00:01:00",847044,5.215,85.5,4.283,0.241,10.88,104.5985,11.05,12.15,57.29,0,110.3,13.35,11.84,47.5
"2009-05-01 00:01:30",847045,5.649,86.2,7.265,1.512,11.86,104.6002,11.05,12.02,57.09,0,110.3,13.31,11.84,48.2
"2009-05-01 00:02:00",847046,4.221,76.78,5.976,0.944,11.51,104.6005,11.05,12.15,57.22,0,110.3,13.31,11.84,38.8
"2009-05-01 00:02:30",847047,4.064,68.97,8.57,1.118,10.38,104.6008,11.05,12.02,57.29,0,110.3,13.31,11.84,31.0
"2009-05-01 00:03:00",847048,2.513,78.96,7.723,0.303,10,104.6008,11.05,11.98,57.19,0,110.3,13.35,11.84,41.0
"2009-05-01 00:03:30",847049,3.385,82,4.836,0.358,10.07,104.6008,11.05,12,57.23,0,110.3,13.35,11.84,44.0
"2009-05-01 00:04:00",847050,2.515,83.9,4.224,0.285,10.22,104.6008,11.05,12,57.16,0,110.3,13.35,11.84,45.9
"2009-05-01 00:04:30",847051,2.729,80.2,3.751,0.51,10.38,104.6008,11.05,12,57.07,0,110.3,13.35,11.84,42.2
"2009-05-01 00:05:00",847052,5.436,67.55,8.71,1.657,13.1,104.6008,11.05,12.21,57.2,0,110.3,13.31,11.84,29.6
"2009-05-01 00:05:30",847053,6.375,62.38,8.22,1.312,14.15,104.6008,11.05,12.27,57.19,0,110.3,13.31,11.84,24.4
"2009-05-01 00:06:00",847054,4.366,57.94,7.835,1.067,11.01,104.6017,11.05,12.05,56.8,0,110.3,13.31,11.84,19.9
"2009-05-01 00:06:30",847055,6.039,53.22,5.083,1.409,12.83,104.605,11.06,12.3,57.05,0,110.3,13.31,11.85,15.2
"2009-05-01 00:07:00",847056,5.636,51.16,4.876,1.458,12.78,104.6197,11.1,12.21,56.96,0,110.3,13.31,11.89,13.2
"2009-05-01 00:07:30",847057,3.347,60.13,7.069,0.323,9.85,104.6242,11.11,12.06,56.91,0,110.3,13.34,11.90,22.1
"2009-05-01 00:08:00",847058,3.987,73.35,3.489,0.218,10.02,104.6284,11.12,12.07,56.92,0,110.3,13.34,11.91,35.3
"2009-05-01 00:08:30",847059,4.597,76.07,4.473,0.6,10.16,104.6329,11.13,12.07,56.87,0,110.3,13.34,11.92,38.1
"2009-05-01 00:09:00",847060,5.238,80.9,4.32,0.706,10.86,104.6346,11.14,12.08,56.95,0,110.3,13.31,11.93,42.9
"2009-05-01 00:09:30",847061,6.391,94.8,6.072,1.327,13.56,104.6346,11.14,12.29,56.96,0,110.3,13.3,11.93,56.8
"2009-05-01 00:10:00",847062,6.002,97.6,6.843,1.459,14.08,104.6346,11.14,12.39,56.95,0,110.3,13.31,11.93,59.6
"2009-05-01 00:10:30",847063,3.976,100.9,6.047,1.536,11.39,104.6346,11.14,12.13,56.72,0,110.3,13.31,11.93,62.9
"2009-05-01 00:11:00",847064,3.836,103.7,5.253,1.116,11.44,104.6346,11.14,12.28,56.9,0,110.3,13.3,11.93,65.7
"2009-05-01 00:11:30",847065,6.412,83,8.81,1.447,12.92,104.6346,11.14,12.33,56.82,0,110.3,13.3,11.93,45.0
"2009-05-01 00:12:00",847066,5.442,67.57,8.09,1.225,10.95,104.6346,11.14,12.23,56.6,0,110.3,13.31,11.93,29.6
"2009-05-01 00:12:30",847067,4.47,67.3,2.993,0.252,9.86,104.6346,11.14,12.14,56.62,0,110.3,13.35,11.93,29.3
"2009-05-01 00:13:00",847068,5.147,63.58,1.94,0.218,9.96,104.6346,11.14,12.14,56.47,0,110.3,13.35,11.93,25.6
"2009-05-01 00:13:30",847069,5.842,70.95,5.702,0.977,11.66,104.6349,11.14,12.32,56.38,0,110.3,13.31,11.93,32.9
"2009-05-01 00:14:00",847070,6.48,74.06,10.28,1.188,12.6,104.6349,11.14,12.24,56.2,0,110.3,13.31,11.93,36.1
"2009-05-01 00:14:30",847071,6.586,79.26,7.85,1.315,13.57,104.6355,11.14,12.3,56.24,0,110.3,13.31,11.93,41.3
"2009-05-01 00:15:00",847072,4.864,73.15,4.822,0.6,10.24,104.6355,11.14,12.16,56.09,0,110.3,13.31,11.93,35.2
"2009-05-01 00:15:30",847073,6.458,85,7.87,1.568,12.46,104.6383,11.15,12.32,56.19,0,110.3,13.31,11.94,47.0
"2009-05-01 00:16:00",847074,7.284,89.2,6.834,1.306,13.24,104.6377,11.15,12.34,56.13,0,110.3,13.31,11.94,51.2
"2009-05-01 00:16:30",847075,5.664,75.64,1.818,0.126,10.09,104.6355,11.14,12.24,55.99,0,110.3,13.35,11.93,37.6
"2009-05-01 00:17:00",847076,5.878,72.53,1.418,0.227,10.02,104.6346,11.14,12.16,55.86,0,110.3,13.35,11.93,34.5
"2009-05-01 00:17:30",847077,7.216,76.68,6.178,1.303,12.38,104.6346,11.14,12.34,56.08,0,110.3,13.31,11.93,38.7
"2009-05-01 00:18:00",847078,6.154,67.82,4.061,0.928,10.9,104.6346,11.14,12.28,56.04,0,110.3,13.31,11.93,29.8
"2009-05-01 00:18:30",847079,5.713,74.26,4.737,1.116,11.77,104.6346,11.14,12.37,56.15,0,110.3,13.31,11.93,36.3
"2009-05-01 00:19:00",847080,6.647,80.5,8.32,1.338,12.62,104.6346,11.14,12.22,56.02,0,110.3,13.31,11.93,42.5
"2009-05-01 00:19:30",847081,5.164,77.58,2.835,1.088,11.5,104.6346,11.14,12.3,56.19,0,110.3,13.31,11.93,39.6
"2009-05-01 00:20:00",847082,4.892,61.75,5.569,1.139,10.61,104.6346,11.14,12.17,56.04,0,110.3,13.31,11.93,23.8
"2009-05-01 00:20:30",847083,5.373,55.63,3.86,1.147,10.93,104.6346,11.14,12.22,56.11,0,110.3,13.31,11.93,17.6
"2009-05-01 00:21:00",847084,5.254,66.29,5.296,1.216,11.9,104.6346,11.14,12.24,56.1,0,110.3,13.31,11.93,28.3
"2009-05-01 00:21:30",847085,4.461,64.5,3.524,0.22,9.98,104.6346,11.14,12.16,55.91,0,110.3,13.35,11.93,26.5
"2009-05-01 00:22:00",847086,5.371,67.67,3.289,0.317,10.25,104.6346,11.14,12.21,56,0,110.3,13.35,11.93,29.7
"2009-05-01 00:22:30",847087,6.756,70.98,9.31,1.252,12.52,104.6346,11.14,12.24,56.11,0,110.3,13.31,11.93,33.0
"2009-05-01 00:23:00",847088,5.546,64.84,5.896,0.889,10.83,104.6346,11.14,12.29,56.16,0,110.3,13.31,11.93,26.8
"2009-05-01 00:23:30",847089,6.647,67.36,7.513,1.413,13.71,104.6346,11.14,12.41,56.27,0,110.3,13.31,11.93,29.4
"2009-05-01 00:24:00",847090,6.077,71.22,6.19,1.403,12.21,104.6346,11.14,12.3,56.3,0,110.3,13.31,11.93,33.2
"2009-05-01 00:24:30",847091,5.351,75.25,4.218,1.001,10.81,104.6346,11.14,12.18,56.19,0,110.3,13.31,11.93,37.2
"2009-05-01 00:25:00",847092,5.54,75.52,4.823,1.136,10.98,104.6346,11.14,12.25,56.15,0,110.3,13.31,11.93,37.5
"2009-05-01 00:25:30",847093,5.631,80.9,5.147,1.185,12.18,104.6346,11.14,12.25,56.11,0,110.3,13.31,11.93,42.9
"2009-05-01 00:26:00",847094,5.049,84.2,3.215,0.235,10.11,104.6383,11.15,12.21,56.07,0,110.3,13.34,11.94,46.2
"2009-05-01 00:26:30",847095,4.887,83,18.55,1.426,12.38,104.6476,11.17,12.3,56.12,0,110.3,13.3,11.96,45.0
"2009-05-01 00:27:00",847096,3.123,66.15,5.121,0.152,9.92,104.6561,11.19,12.29,56.05,0,110.3,13.34,11.98,28.2
"2009-05-01 00:27:30",847097,2.988,75.93,4.253,0.249,9.85,104.6617,11.21,12.3,56.05,0,110.3,13.34,12.00,37.9
"2009-05-01 00:28:00",847098,4.57,79.52,7.296,1.257,13.24,104.6676,11.22,12.35,56.09,0,110.3,13.31,12.01,41.5
"2009-05-01 00:28:30",847099,4.478,70.16,9.28,1.509,13.12,104.6685,11.22,12.42,56.08,0,110.3,13.31,12.02,32.2
"2009-05-01 00:29:00",847100,4.632,65.74,2.626,0.461,9.9,104.6685,11.22,12.21,55.85,0,110.3,13.31,12.02,27.7
"2009-05-01 00:29:30",847101,5.091,64.05,2.377,0.39,10.01,104.6685,11.22,12.25,55.84,0,110.3,13.35,12.02,26.1
"2009-05-01 00:30:00",847102,6.126,74.34,6.707,1.5,12.27,104.6685,11.22,12.34,55.94,0,110.3,13.31,12.02,36.3
"2009-05-01 00:30:30",847103,5.383,81.9,4.372,1.146,12.16,104.6685,11.22,12.42,56,0,110.3,13.31,12.02,43.9
"2009-05-01 00:31:00",847104,4.974,83.6,5.913,1.128,11.87,104.6685,11.22,12.4,55.93,0,110.3,13.31,12.02,45.6
"2009-05-01 00:31:30",847105,4.751,77.11,7.315,1.057,10.64,104.6685,11.22,12.24,55.75,0,110.3,13.31,12.02,39.1
"2009-05-01 00:32:00",847106,5.444,63.62,2.287,0.432,9.76,104.6685,11.22,12.25,55.56,0,110.3,13.35,12.02,25.6
"2009-05-01 00:32:30",847107,7.012,76.61,7.559,1.235,12.97,104.6685,11.22,12.42,55.7,0,110.3,13.31,12.02,38.6
"2009-05-01 00:33:00",847108,6.012,80.2,7.837,1.279,12.88,104.6685,11.22,12.47,56.03,0,110.3,13.31,12.02,42.2
"2009-05-01 00:33:30",847109,4.91,59.72,2.777,0.378,10.02,104.6685,11.22,12.25,55.63,0,110.3,13.35,12.02,21.7
"2009-05-01 00:34:00",847110,5.037,60.96,3.229,0.296,10.02,104.6685,11.22,12.26,55.49,0,110.3,13.35,12.02,23.0
"2009-05-01 00:34:30",847111,5.652,71.43,6.466,1.158,11.43,104.6685,11.22,12.27,55.51,0,110.3,13.31,12.02,33.4
"2009-05-01 00:35:00",847112,5.782,79.18,7.593,1.299,13.07,104.6685,11.22,12.54,55.77,0,110.3,13.31,12.02,41.2
"2009-05-01 00:35:30",847113,4.442,80.9,5.555,0.78,10.97,104.6685,11.22,12.43,55.72,0,110.3,13.31,12.02,42.9
"2009-05-01 00:36:00",847114,4.593,70.32,4.66,0.473,9.66,104.6685,11.22,12.26,55.5,0,110.3,13.35,12.02,32.3
"2009-05-01 00:36:30",847115,5.902,78.29,8.63,1.237,10.75,104.6685,11.22,12.35,55.52,0,110.3,13.31,12.02,40.3
"2009-05-01 00:37:00",847116,6.843,88.3,4.989,1.198,14.11,104.6685,11.22,12.5,55.68,0,110.3,13.31,12.02,50.3
"2009-05-01 00:37:30",847117,5.703,73.74,6.465,1.299,11.83,104.6685,11.22,12.46,55.55,0,110.3,13.31,12.02,35.7
"2009-05-01 00:38:00",847118,4.284,62.8,4.555,0.159,9.9,104.6685,11.22,12.26,55.34,0,110.3,13.35,12.02,24.8
"2009-05-01 00:38:30",847119,3.958,56.26,2.234,0.209,9.93,104.6685,11.22,12.25,55.32,0,110.3,13.35,12.02,18.3
"2009-05-01 00:39:00",847120,5.629,63.18,9.56,1.317,12.61,104.6685,11.22,12.41,55.52,0,110.3,13.31,12.02,25.2
"2009-05-01 00:39:30",847121,6.462,61.85,7.564,1.453,13.36,104.6685,11.22,12.51,55.86,0,110.3,13.31,12.02,23.8
"2009-05-01 00:40:00",847122,4.513,63.35,5.2,1.252,10.74,104.6685,11.22,12.29,55.79,0,110.3,13.31,12.02,25.3
"2009-05-01 00:40:30",847123,4.418,74.37,4.784,0.331,9.8,104.6685,11.22,12.25,55.83,0,110.3,13.34,12.02,36.4
"2009-05-01 00:41:00",847124,4.606,76.29,5.334,1.264,11.52,104.6685,11.22,12.42,56.03,0,110.3,13.31,12.02,38.3
"2009-05-01 00:41:30",847125,6.469,73.79,6.914,1.502,12.93,104.6685,11.22,12.43,56.17,0,110.3,13.3,12.02,35.8
"2009-05-01 00:42:00",847126,6.52,63.83,7.194,1.28,11.87,104.6685,11.22,12.37,56.17,0,110.3,13.3,12.02,25.8
"2009-05-01 00:42:30",847127,4.98,65.21,4.631,0.276,10.31,104.6685,11.22,12.28,56.02,0,110.3,13.34,12.02,27.2
"2009-05-01 00:43:00",847128,5.072,62.87,4.537,0.209,10.56,104.6685,11.22,12.36,56.13,0,110.3,13.33,12.02,24.9
"2009-05-01 00:43:30",847129,7.039,72.14,7.589,1.062,14.27,104.669,11.23,12.5,56.39,0,110.3,13.3,12.02,34.1
"2009-05-01 00:44:00",847130,6.111,66.57,6.988,1.565,13.12,104.6741,11.24,12.43,56.2,0,110.3,13.3,12.03,28.6
"2009-05-01 00:44:30",847131,4.097,70.51,4.317,0.429,10.07,104.6775,11.25,12.27,56,0,110.3,13.33,12.04,32.5
"2009-05-01 00:45:00",847132,5.231,82.2,4.961,1.086,11.5,104.6797,11.25,12.41,55.87,0,110.3,13.31,12.04,44.2
"2009-05-01 00:45:30",847133,4.588,78.8,5.794,1.113,10.96,104.6848,11.27,12.37,55.75,0,110.3,13.31,12.06,40.8
"2009-05-01 00:46:00",847134,6.146,78.13,8.75,1.169,13.39,104.6882,11.27,12.4,55.69,0,110.3,13.31,12.07,40.1
"2009-05-01 00:46:30",847135,4.638,65.41,3.564,0.316,10.22,104.6899,11.28,12.36,55.77,0,110.3,13.35,12.07,27.4
"2009-05-01 00:47:00",847136,4.677,69.25,4.334,0.275,10.15,104.6899,11.28,12.28,55.78,0,110.3,13.35,12.07,31.2
"2009-05-01 00:47:30",847137,4.441,86.7,7.819,1.293,12.39,104.6905,11.28,12.33,55.77,0,110.3,13.31,12.07,48.7
"2009-05-01 00:48:00",847138,3.139,85.3,3.354,0.937,11.49,104.6896,11.28,12.43,55.74,0,110.3,13.31,12.07,47.3
"2009-05-01 00:48:30",847139,4.568,96.1,7.52,1.25,13.3,104.6913,11.28,12.39,55.72,0,110.3,13.31,12.07,58.1
"2009-05-01 00:49:00",847140,3.721,86.4,5.424,1.662,11.24,104.6919,11.28,12.43,55.71,0,110.3,13.31,12.08,48.4
"2009-05-01 00:49:30",847141,3.716,88.5,7.132,0.363,9.89,104.6933,11.29,12.29,55.47,0,110.3,13.35,12.08,50.5
"2009-05-01 00:50:00",847142,5.29,86,9.7,1.524,11.98,104.6924,11.29,12.43,55.61,0,110.3,13.31,12.08,48.0
"2009-05-01 00:50:30",847143,5.164,72.3,4.974,1.201,12.93,104.6888,11.28,12.46,55.58,0,110.3,13.31,12.07,34.3
"2009-05-01 00:51:00",847144,3.366,61.42,5.634,1.156,10.69,104.6862,11.27,12.35,55.47,0,110.3,13.31,12.06,23.4
"2009-05-01 00:51:30",847145,3.702,66.82,4.937,0.379,10.53,104.6812,11.26,12.34,55.44,0,110.3,13.35,12.05,28.8
"2009-05-01 00:52:00",847146,3.944,57.14,6.464,0.796,10.14,104.6766,11.24,12.34,55.44,0,110.3,13.31,12.04,19.1
"2009-05-01 00:52:30",847147,5.773,54.31,7.406,1.429,12.13,104.6699,11.23,12.37,55.44,0,110.3,13.31,12.02,16.3
"2009-05-01 00:53:00",847148,4.592,56.96,4.621,0.662,10.78,104.6685,11.22,12.39,55.46,0,110.3,13.31,12.02,19.0
"2009-05-01 00:53:30",847149,5.087,56.38,6.04,1.379,11.28,104.6685,11.22,12.28,55.32,0,110.3,13.31,12.02,18.4
"2009-05-01 00:54:00",847150,5.273,57.85,6.548,1.328,11.95,104.6685,11.22,12.43,55.36,0,110.3,13.31,12.02,19.8
"2009-05-01 00:54:30",847151,4.384,53.11,3.864,0.967,10.75,104.6656,11.22,12.4,55.32,0,110.3,13.31,12.01,15.1
"2009-05-01 00:55:00",847152,6.182,63.62,7.89,1.24,13.42,104.6592,11.2,12.41,55.34,0,110.3,13.31,11.99,25.6
"2009-05-01 00:55:30",847153,4.928,53.62,4.274,0.23,11.13,104.6456,11.17,12.36,55.38,0,110.3,13.35,11.96,15.6
"2009-05-01 00:56:00",847154,4.674,54.99,3.917,0.661,11.11,104.6349,11.14,12.36,55.43,0,110.3,13.31,11.93,17.0
"2009-05-01 00:56:30",847155,5.238,59.27,6.028,1.341,11.94,104.6346,11.14,12.24,55.37,0,110.3,13.31,11.93,21.3
"2009-05-01 00:57:00",847156,5.103,65.05,7.35,1.097,11.45,104.6346,11.14,12.39,55.57,0,110.3,13.31,11.93,27.1
"2009-05-01 00:57:30",847157,6.346,74.01,9.39,1.239,12.02,104.6332,11.13,12.25,55.54,0,110.3,13.31,11.92,36.0
"2009-05-01 00:58:00",847158,5.449,81,7.401,1.139,12.39,104.6219,11.1,12.33,55.72,0,110.3,13.31,11.90,43.0
"2009-05-01 00:58:30",847159,5.239,75.53,8.22,1.167,11.35,104.6031,11.06,12.22,55.74,0,110.3,13.31,11.85,37.5
"2009-05-01 00:59:00",847160,5.04,59.43,5.991,0.832,11.44,104.6008,11.05,12.32,55.93,0,110.3,13.31,11.84,21.4
"2009-05-01 00:59:30",847161,6.901,62.32,9.41,1.261,13.98,104.6008,11.05,12.26,55.97,0,110.3,13.31,11.84,24.3
"2009-05-01 01:00:00",847162,3.761,54.9,7.064,1.331,11.06,104.5974,11.04,12.2,56.02,0,110.3,13.31,11.83,16.9
"2009-05-01 01:00:30",847163,3.517,63.54,6.263,0.875,11.1,104.5799,11,12.22,56.19,0,110.3,13.31,11.79,25.5
"2009-05-01 01:01:00",847164,3.563,79.84,11.83,1.313,11.96,104.5675,10.97,12.2,56.28,0,110.3,13.31,11.76,41.8
"2009-05-01 01:01:30",847165,3.763,68.9,7.263,1.156,11.49,104.567,10.96,12.2,56.33,0,110.3,13.31,11.75,30.9
"2009-05-01 01:02:00",847166,4.087,58.08,4.975,1.101,11.51,104.5664,10.96,12.21,56.42,0,110.3,13.31,11.75,20.1
"2009-05-01 01:02:30",847167,5.037,61.43,5.578,0.865,11.37,104.5574,10.94,12.11,56.46,0,110.3,13.31,11.73,23.4
"2009-05-01 01:03:00",847168,4.377,79.46,5.824,0.948,12.09,104.5354,10.88,12.04,56.5,0,110.3,13.32,11.67,41.5
"2009-05-01 01:03:30",847169,4.773,73.5,7.905,1.411,12.49,104.5331,10.88,12.15,56.68,0,110.3,13.32,11.67,35.5
"2009-05-01 01:04:00",847170,5.26,63.66,8.21,1.439,12.17,104.5331,10.88,12.09,56.58,0,110.3,13.32,11.67,25.7
"2009-05-01 01:04:30",847171,4.231,54.57,1.978,0.246,10.42,104.5315,10.87,12.1,56.69,0,110.3,13.35,11.66,16.6
"2009-05-01 01:05:00",847172,4.757,70.4,7.621,1.141,12.03,104.5183,10.84,12.06,56.72,0,110.3,13.32,11.63,32.4
"2009-05-01 01:05:30",847173,4.271,71.65,5.856,1.052,11.63,104.5068,10.81,12.08,56.75,0,110.3,13.32,11.60,33.7
"2009-05-01 01:06:00",847174,4.791,74.73,6.407,1.316,12.47,104.5061,10.81,12.08,56.81,0,110.3,13.32,11.60,36.7
"2009-05-01 01:06:30",847175,4.476,71.67,7.454,1.174,12.46,104.5093,10.82,12.06,56.83,0,110.3,13.32,11.61,33.7
"2009-05-01 01:07:00",847176,4.081,73.69,5.316,1.142,11.99,104.5079,10.81,11.96,56.81,0,110.3,13.32,11.60,35.7
"2009-05-01 01:07:30",847177,5.096,82.9,6.797,1.235,13.91,104.5004,10.79,12.03,56.96,0,110.3,13.32,11.58,44.9
"2009-05-01 01:08:00",847178,5.142,84.1,6.884,1.332,13.34,104.4855,10.76,12.06,57.05,0,110.3,13.32,11.55,46.1
"2009-05-01 01:08:30",847179,3.702,70.29,2.361,0.156,10.2,104.479,10.74,11.85,56.88,0,110.3,13.36,11.53,32.3
"2009-05-01 01:09:00",847180,4.932,73.13,7.413,1.273,11.43,104.4832,10.75,11.87,56.87,0,110.3,13.32,11.54,35.1
"2009-05-01 01:09:30",847181,4.99,78.83,5.68,1.267,12.21,104.4838,10.75,11.97,57.07,0,110.3,13.32,11.54,40.8
"2009-05-01 01:10:00",847182,4.487,72.86,7.534,1.049,11.18,104.4801,10.74,11.81,56.99,0,110.3,13.32,11.53,34.9
"2009-05-01 01:10:30",847183,4.538,75.71,6.696,1.192,12.62,104.4752,10.73,11.95,57.23,0,110.3,13.32,11.52,37.7
"2009-05-01 01:11:00",847184,3.265,64.48,3.389,0.191,10.68,104.4626,10.7,11.79,57.01,0,110.3,13.36,11.49,26.5
"2009-05-01 01:11:30",847185,4.512,78.79,7.358,1.255,12.59,104.4588,10.69,11.96,57.26,0,110.3,13.33,11.48,40.8
"2009-05-01 01:12:00",847186,4.855,67.47,7.033,1.318,13.82,104.4611,10.69,12.01,57.35,0,110.3,13.33,11.48,29.5
"2009-05-01 01:12:30",847187,3.091,60.89,3.166,0.082,10.06,104.4655,10.7,11.76,57.03,0,110.3,13.36,11.49,22.9
"2009-05-01 01:13:00",847188,2.549,63.87,2.455,0.093,9.74,104.4625,10.7,11.76,57,0,110.3,13.36,11.49,25.9
"2009-05-01 01:13:30",847189,2.788,71.54,5.869,0.808,11.32,104.454,10.68,11.89,57.19,0,110.3,13.33,11.46,33.5
"2009-05-01 01:14:00",847190,2.539,65.92,7.425,0.819,10.8,104.4394,10.64,11.77,57.17,0,110.3,13.33,11.43,27.9
"2009-05-01 01:14:30",847191,2.683,65.44,6.915,1.058,10.84,104.4334,10.62,11.71,57.24,0,110.3,13.33,11.41,27.4
"2009-05-01 01:15:00",847192,3.9,64.04,8.58,1.385,12.32,104.4332,10.62,11.86,57.46,0,110.3,13.33,11.41,26.0
"2009-05-01 01:15:30",847193,3.726,55.62,7.449,1.004,11.09,104.4332,10.62,11.68,57.16,0,110.3,13.33,11.41,17.6
"2009-05-01 01:16:00",847194,3.684,69.09,5.071,1.139,11.94,104.4326,10.62,11.77,57.23,0,110.3,13.33,11.41,31.1
"2009-05-01 01:16:30",847195,4.18,68.04,5.911,1.385,12.52,104.4258,10.6,11.86,57.5,0,110.3,13.33,11.39,30.0
"2009-05-01 01:17:00",847196,3.958,64.29,5.002,1.189,11.51,104.4174,10.58,11.82,57.52,0,110.3,13.33,11.37,26.3
"2009-05-01 01:17:30",847197,4.168,68.64,6.111,1.092,10.34,104.4044,10.55,11.64,57.25,0,110.3,13.33,11.34,30.6
"2009-05-01 01:18:00",847198,4.514,69.48,5.09,0.839,11.1,104.3993,10.54,11.78,57.42,0,110.2,13.33,11.32,31.5
"2009-05-01 01:18:30",847199,5.541,70.23,7.508,1.31,13.06,104.3993,10.54,11.73,57.42,0,110.2,13.33,11.32,32.2
"2009-05-01 01:19:00",847200,4.573,64.17,4.419,0.92,11.19,104.3993,10.54,11.71,57.48,0,110.3,13.34,11.32,26.2
"2009-05-01 01:19:30",847201,5.928,68.25,7.141,1.332,14.18,104.3988,10.53,11.79,57.61,0,110.2,13.34,11.32,30.2
"2009-05-01 01:20:00",847202,4.326,63.99,5.298,1.025,11.38,104.3897,10.51,11.67,57.55,0,110.2,13.34,11.30,26.0
"2009-05-01 01:20:30",847203,5.991,68.92,6.878,1.138,13.87,104.3722,10.47,11.73,57.59,0,110.2,13.34,11.25,30.9
"2009-05-01 01:21:00",847204,3.894,56.79,1.373,0.102,10.12,104.366,10.45,11.64,57.55,0,110.2,13.38,11.24,18.8
"2009-05-01 01:21:30",847205,3.899,58.47,1.285,0.118,10.13,104.3655,10.45,11.62,57.56,0,110.2,13.38,11.24,20.5
"2009-05-01 01:22:00",847206,5.308,61.94,5.155,1.387,12.27,104.3661,10.45,11.61,57.53,0,110.2,13.34,11.24,23.9
"2009-05-01 01:22:30",847207,4.807,68.9,8.83,1.059,12.91,104.3664,10.45,11.86,57.79,0,110.2,13.34,11.24,30.9
"2009-05-01 01:23:00",847208,4.508,70.65,10.51,0.949,11.82,104.3679,10.45,11.59,57.61,0,110.2,13.34,11.24,32.7
"2009-05-01 01:23:30",847209,5.672,70.28,7.72,1.318,13.97,104.3637,10.44,11.73,57.82,0,110.2,13.34,11.23,32.3
"2009-05-01 01:24:00",847210,4.507,63.77,3.201,0.794,10.82,104.3587,10.43,11.6,57.76,0,110.2,13.34,11.22,25.8
"2009-05-01 01:24:30",847211,4.433,59.9,4.876,0.674,11.12,104.3571,10.43,11.65,57.85,0,110.2,13.34,11.22,21.9
"2009-05-01 01:25:00",847212,5.047,66.78,4.162,1.322,11.86,104.3501,10.41,11.49,57.76,0,110.2,13.34,11.20,28.8
"2009-05-01 01:25:30",847213,3.862,60.1,1.675,0.104,10.25,104.3431,10.39,11.53,57.86,0,110.2,13.38,11.18,22.1
"2009-05-01 01:26:00",847214,5.022,69.71,6.903,1.175,12.41,104.3475,10.4,11.56,57.9,0,110.2,13.34,11.19,31.7
"2009-05-01 01:26:30",847215,5.489,69.78,10.93,1.282,13.79,104.3519,10.41,11.71,58.07,0,110.2,13.35,11.20,31.8
"2009-05-01 01:27:00",847216,5.266,67.93,5.826,1.323,12.4,104.3534,10.42,11.56,57.95,0,110.2,13.34,11.21,29.9
"2009-05-01 01:27:30",847217,5.651,66.4,6.724,1.252,13,104.3558,10.42,11.56,57.97,0,110.2,13.35,11.21,28.4
"2009-05-01 01:28:00",847218,4.53,62.27,2.408,0.206,10.33,104.3614,10.44,11.52,57.96,0,110.3,13.38,11.23,24.3
"2009-05-01 01:28:30",847219,5.786,69.72,7.321,1.277,12.57,104.358,10.43,11.61,58.04,0,110.2,13.35,11.22,31.7
"2009-05-01 01:29:00",847220,4.25,62.57,2.991,0.102,10.67,104.3568,10.43,11.57,58.04,0,110.2,13.38,11.22,24.6
"2009-05-01 01:29:30",847221,4.293,60.15,4.503,0.897,10.9,104.3528,10.42,11.44,57.9,0,110.2,13.35,11.20,22.2
"2009-05-01 01:30:00",847222,5.668,74.25,8.2,1.23,13.44,104.3469,10.4,11.6,58.11,0,110.2,13.35,11.19,36.2
"2009-05-01 01:30:30",847223,5.708,75.37,6.485,1.355,13.45,104.3399,10.38,11.56,58.07,0,110.2,13.35,11.17,37.4
"2009-05-01 01:31:00",847224,5.678,75,7.286,1.295,13.26,104.3342,10.37,11.6,58.08,0,110.2,13.35,11.16,37.0
"2009-05-01 01:31:30",847225,4.205,66.11,1.726,0.104,10.43,104.3331,10.37,11.5,58.04,0,110.2,13.38,11.15,28.1
"2009-05-01 01:32:00",847226,4.236,54.09,4.926,0.198,10.05,104.3331,10.37,11.42,57.92,0,110.2,13.38,11.15,16.1
"2009-05-01 01:32:30",847227,5.776,59.92,7.196,1.348,12.52,104.3331,10.37,11.52,58.05,0,110.2,13.35,11.15,21.9
"2009-05-01 01:33:00",847228,4.942,59.06,8.89,0.968,12.18,104.3331,10.37,11.58,58.08,0,110.2,13.35,11.15,21.1
"2009-05-01 01:33:30",847229,5.427,65.59,7.283,1.325,12.63,104.3331,10.37,11.54,58.07,0,110.2,13.35,11.15,27.6
"2009-05-01 01:34:00",847230,5.545,66.44,6.783,1.326,12.34,104.3331,10.37,11.53,58.11,0,110.2,13.35,11.15,28.4
"2009-05-01 01:34:30",847231,6.151,68.43,5.999,1.274,14.26,104.3331,10.37,11.67,58.31,0,110.2,13.35,11.15,30.4
"2009-05-01 01:35:00",847232,5.99,64.11,7.168,1.312,13.38,104.3317,10.36,11.58,58.23,0,110.2,13.35,11.15,26.1
"2009-05-01 01:35:30",847233,4.867,59.88,4.297,0.907,10.35,104.3275,10.35,11.38,58,0,110.2,13.35,11.14,21.9
"2009-05-01 01:36:00",847234,4.353,59.4,0.87,0.105,9.98,104.3252,10.35,11.36,58,0,110.2,13.39,11.13,21.4
"2009-05-01 01:36:30",847235,4.712,62.22,5.034,0.974,11.56,104.3196,10.33,11.54,58.19,0,110.2,13.35,11.12,24.2
"2009-05-01 01:37:00",847236,5.646,67.2,6.567,1.326,13.07,104.3167,10.32,11.44,58.12,0,110.2,13.35,11.11,29.2
"2009-05-01 01:37:30",847237,4.59,60.03,5.046,0.896,11.51,104.3142,10.32,11.51,58.23,0,110.2,13.35,11.11,22.0
"2009-05-01 01:38:00",847238,6.121,69.75,6.064,1.264,14,104.3094,10.31,11.61,58.29,0,110.2,13.35,11.09,31.8
"2009-05-01 01:38:30",847239,6.247,68.61,6.952,1.322,13.52,104.3015,10.29,11.56,58.27,0,110.2,13.35,11.07,30.6
"2009-05-01 01:39:00",847240,4.481,61.58,1.813,0.178,10.29,104.2992,10.28,11.39,58.08,0,110.2,13.39,11.07,23.6
"2009-05-01 01:39:30",847241,3.954,61.03,1.405,0.181,9.97,104.2992,10.28,11.33,58.06,0,110.2,13.39,11.07,23.0
"2009-05-01 01:40:00",847242,4.196,61.29,1.623,0.25,10.28,104.2992,10.28,11.33,58.07,0,110.2,13.35,11.07,23.3
"2009-05-01 01:40:30",847243,4.57,64.94,5.216,1.084,11.96,104.2992,10.28,11.52,58.23,0,110.2,13.36,11.07,26.9
"2009-05-01 01:41:00",847244,5.708,65.17,6.61,1.321,12.94,104.2992,10.28,11.48,58.14,0,110.2,13.36,11.07,27.2
"2009-05-01 01:41:30",847245,4.7,69.02,6.948,1.053,12.29,104.2995,10.28,11.51,58.14,0,110.2,13.36,11.07,31.0
"2009-05-01 01:42:00",847246,6.034,71.31,6.461,1.283,14.15,104.2992,10.28,11.59,58.24,0,110.2,13.36,11.07,33.3
"2009-05-01 01:42:30",847247,6.129,73.06,6.44,1.224,13.49,104.2992,10.28,11.59,58.25,0,110.2,13.36,11.07,35.1
"2009-05-01 01:43:00",847248,4.876,68.61,2.713,0.501,10.1,104.2992,10.28,11.34,57.97,0,110.2,13.36,11.07,30.6
"2009-05-01 01:43:30",847249,4.6,67.34,1.494,0.139,9.98,104.2995,10.28,11.32,57.88,0,110.2,13.39,11.07,29.3
"2009-05-01 01:44:00",847250,5.098,70.09,6.483,1.152,11.69,104.3004,10.28,11.41,57.97,0,110.2,13.36,11.07,32.1
"2009-05-01 01:44:30",847251,5.724,75.07,5.936,1.373,12.47,104.301,10.28,11.35,57.89,0,110.2,13.36,11.07,37.1
"2009-05-01 01:45:00",847252,6.26,81.6,6.587,1.217,14.01,104.3004,10.28,11.48,58,0,110.2,13.36,11.07,43.6
"2009-05-01 01:45:30",847253,6.446,81.1,5.8,1.202,14.71,104.3007,10.28,11.56,58.12,0,110.2,13.36,11.07,43.1
"2009-05-01 01:46:00",847254,6.151,78.95,6.002,1.223,13.84,104.3037,10.29,11.48,58.03,0,110.2,13.36,11.08,40.9
"2009-05-01 01:46:30",847255,4.864,68.92,3.534,0.497,10.45,104.3043,10.29,11.37,57.89,0,110.1,13.39,11.08,30.9
"2009-05-01 01:47:00",847256,4.749,68.03,2.208,0.139,9.9,104.3049,10.29,11.31,57.81,0,110.1,13.39,11.08,30.0
"2009-05-01 01:47:30",847257,4.925,68.81,2.939,0.182,10.14,104.305,10.29,11.32,57.76,0,110.1,13.39,11.08,30.8
"2009-05-01 01:48:00",847258,5.037,66.67,1.247,0.096,10.72,104.301,10.28,11.41,57.82,0,110.1,13.39,11.07,28.7
"2009-05-01 01:48:30",847259,6.732,74.21,5.878,1.272,14.46,104.3008,10.28,11.55,57.97,0,110.1,13.35,11.07,36.2